sat.trackr.live / text

‹ back to catalog

CTC-0

NORAD 62401 · 2024-247AA

PAYLOAD ACTIVE UNKNOWN

§ Identity

Operator
Country
US
Launch date
2024-12-21
Launch site
AFWTR
Launch vehicle
Mass (kg)
RCS (m²)

External: N2YO · Heavens-Above · Gunter

§ Orbital elements

Epoch: 2026-05-25T02:23:45.870144Z

Period
93.59 min
Inclination
44.9739°
Eccentricity
0.0006127
Mean motion
15.38570684 rev/d
Perigee alt
446.2 km
Apogee alt
454.5 km
Semi-major
6,828.5 km
B*
4.5643e-4
RAAN
38.4470°
Arg perigee
151.6471°
Mean anomaly
208.4750°
Rev number
7,966

§ Raw data

CTC-01 62401U 24247AA  26145.09983646  .00017461  00000+0  45643-3 0  99982 62401  44.9739  38.4470 0006127 151.6471 208.4750 15.38570684 79669

JSON: /api/v1/satellites/62401 · /tle

For live sub-satellite position, see the globe view (requires WebGL).

§ Visibility from observer

Set your observer location to see the next 7 days of passes ≥ 10°. The values pass through the URL so the page stays shareable.

No JS? Fill the form by hand. The geolocation button needs JavaScript.

§ Radio — SatNOGS DB

ModeDescriptionDownlinkUplink
4FSK Mode S - FSK 62.5 Kbps 2.241 GHz
QPSK Mode S - QPSK 200Kbps 2.185 GHz
GFSK Mode U - GFSK4k8 401.500 MHz

3 transmitters · refreshed weekly from db.satnogs.org